Simultaneous Nadir Overpasses (SNOs) Predictions

Prediction of SNOs between GOES-16 and NOAA-19 Satellite Orbit:

Table of predicted SNOs for the next 14.0 days since TLE Epoch: 3/28/2025
Index Date Time (GOES-16) GOES-16 Lat,Lon NOAA-19 Lat,Lon Distance(km) Time Diff (sec)
1 03/31/2025 02:52:10 -0.06, -75.50 -0.40, -76.98 168.59 80
2 04/01/2025 02:36:56 -0.06, -75.51 0.33, -73.93 180.67 80
3 04/03/2025 14:55:36 0.05, -75.55 0.68, -78.39 323.46 80
4 04/04/2025 14:45:40 0.05, -75.55 -0.03, -75.33 26.53 80
5 04/05/2025 14:33:04 0.05, -75.57 -0.68, -72.26 376.44 80
6 04/07/2025 03:04:25 -0.05, -75.57 -1.04, -79.80 483.36 80
7 04/08/2025 02:51:51 -0.04, -75.58 -0.28, -76.75 132.88 80
8 04/09/2025 02:36:35 -0.04, -75.60 0.42, -73.70 217.98 80
9 04/11/2025 14:55:12 0.04, -75.67 0.58, -78.14 280.94 80
